Muskogee, OK

5:20 PM CST on December 18, 2017 (GMT -0600)
Davis

Weather History for KMKO - October, 2013

Change the Weather History Date:

Friday, October 4, 2013

  Actual Average Record
Temperature  
Mean Temperature 78 °F -  
Max Temperature 88 °F 76 °F 93 °F (2006)
Min Temperature 70 °F 52 °F 39 °F (2014)
Cooling Degree Days 14    
Growing Degree Days 28 (Base 50)    
Moisture  
Dew Point 68 °F    
Average Humidity 75    
Maximum Humidity 93    
Minimum Humidity 55    
Precipitation  
Precipitation 0.00 in - - ()
Sea Level Pressure  
Sea Level Pressure 29.86 in    
Wind  
Wind Speed 10 mph (SSE)    
Max Wind Speed 15 mph    
Max Gust Speed 23 mph    
Visibility 10 miles    
Events      
Averages and records for this station are not official NWS values.
T = Trace of Precipitation, MM = Missing Value Source: NWS Daily Summary

Daily Weather History Graph

Daily Weather History Graph

Search for Another Location

Airport or City:

Trip Planner

Search our weather history database for the weather conditions in past years. The results will help you decide how hot, cold, wet, or windy it might be!

Date:

Astronomy

Oct. 04, 2013 Rise Set
Actual Time 7:19 AM CDT 7:00 PM CDT
Civil Twilight 6:53 AM CDT 7:25 PM CDT
Nautical Twilight 6:23 AM CDT 7:55 PM CDT
Astronomical Twilight 5:54 AM CDT 8:25 PM CDT
Moon 6:55 AM CDT (10/4) 6:44 PM CDT (10/4)
Length of Visible Light 12h 32m
Length of Day
11h 41m
Waning Crescent, 0% of the Moon is Illuminated
Oct 4
Waning Crescent
Oct 4
New
Oct 11
First Quarter
Oct 18
Full
Oct 26
Last Quarter

Hourly Weather History & Observations

Time (CDT) Temp. Heat Index Dew Point Humidity Pressure Visibility Wind Dir Wind Speed Gust Speed Precip Events Conditions
12:53 AM 73.0 °F - 69.1 °F 87% 29.86 in 10.0 mi SSE 8.1 mph - N/A   Clear
1:53 AM 71.1 °F - 68.0 °F 90% 29.86 in 10.0 mi SSE 8.1 mph - N/A   Clear
2:53 AM 71.1 °F - 69.1 °F 93% 29.86 in 10.0 mi SSE 8.1 mph - N/A   Clear
3:53 AM 71.1 °F - 68.0 °F 90% 29.86 in 10.0 mi SSE 9.2 mph - N/A   Clear
4:53 AM 71.1 °F - 69.1 °F 93% 29.86 in 10.0 mi SSE 10.4 mph - N/A   Partly Cloudy
5:53 AM 70.0 °F - 68.0 °F 93% 29.86 in 10.0 mi SSE 6.9 mph - N/A   Clear
6:53 AM 71.1 °F - 68.0 °F 90% 29.88 in 10.0 mi SE 8.1 mph - N/A   Mostly Cloudy
7:53 AM 71.1 °F - 69.1 °F 93% 29.89 in 9.0 mi SE 8.1 mph - N/A   Clear
8:53 AM 75.0 °F - 70.0 °F 84% 29.89 in 10.0 mi SSE 9.2 mph 17.3 mph N/A   Clear
9:53 AM 78.1 °F - 71.1 °F 79% 29.89 in 10.0 mi South 13.8 mph - N/A   Scattered Clouds
10:53 AM 80.1 °F 83.6 °F 71.1 °F 74% 29.90 in 10.0 mi South 12.7 mph - N/A   Partly Cloudy
11:53 AM 84.0 °F 88.4 °F 70.0 °F 63% 29.90 in 10.0 mi South 13.8 mph 21.9 mph N/A   Scattered Clouds
12:53 PM 86.0 °F 90.7 °F 70.0 °F 59% 29.88 in 10.0 mi South 11.5 mph - N/A   Clear
1:53 PM 87.1 °F 91.3 °F 69.1 °F 55% 29.85 in 10.0 mi South 15.0 mph 20.7 mph N/A   Clear
2:53 PM 84.9 °F 88.2 °F 68.0 °F 57% 29.83 in 10.0 mi South 12.7 mph 23.0 mph N/A   Clear
3:53 PM 86.0 °F 89.4 °F 68.0 °F 55% 29.83 in 10.0 mi SSE 15.0 mph 23.0 mph N/A   Clear
4:53 PM 82.9 °F 85.4 °F 66.9 °F 58% 29.83 in 10.0 mi SSE 13.8 mph 21.9 mph N/A   Clear
5:53 PM 82.0 °F 84.5 °F 66.9 °F 60% 29.82 in 10.0 mi SSE 11.5 mph - N/A   Clear
6:53 PM 80.1 °F 82.3 °F 66.9 °F 64% 29.82 in 10.0 mi SSE 10.4 mph - N/A   Clear
7:53 PM 77.0 °F - 66.0 °F 69% 29.82 in 10.0 mi SSE 9.2 mph - N/A   Clear
8:53 PM 75.0 °F - 66.0 °F 73% 29.86 in 10.0 mi SSE 4.6 mph - N/A   Clear
9:53 PM 75.0 °F - 64.9 °F 71% 29.86 in 10.0 mi SE 10.4 mph - N/A   Clear
10:53 PM 75.9 °F - 66.0 °F 71% 29.87 in 10.0 mi SSE 9.2 mph - N/A   Clear
11:53 PM 75.0 °F - 66.0 °F 73% 29.86 in 10.0 mi SE 9.2 mph - N/A   Clear